TimeEDT,TemperatureF,Dew PointF,Humidity,Sea Level PressureIn,VisibilityMPH,Wind Direction,Wind SpeedMPH,Gust SpeedMPH,PrecipitationIn,Events,Conditions,WindDirDegrees,DateUTC
12:15 AM,66.2,46.4,49,30.05,10.0,West,23.0,32.2,N/A,,Clear,270,2013-05-16 04:15:00
12:35 AM,64.4,46.4,52,30.05,10.0,West,24.2,32.2,N/A,,Clear,270,2013-05-16 04:35:00
12:55 AM,64.4,46.4,52,30.05,10.0,West,21.9,28.8,N/A,,Clear,270,2013-05-16 04:55:00
1:15 AM,64.4,46.4,52,30.04,10.0,West,20.7,29.9,N/A,,Clear,270,2013-05-16 05:15:00
1:35 AM,64.4,46.4,52,30.03,10.0,West,23.0,29.9,N/A,,Clear,270,2013-05-16 05:35:00
1:55 AM,64.4,46.4,52,30.03,10.0,West,20.7,29.9,N/A,,Clear,280,2013-05-16 05:55:00
2:15 AM,64.4,46.4,52,30.03,10.0,West,21.9,28.8,N/A,,Clear,280,2013-05-16 06:15:00
2:35 AM,62.6,46.4,55,30.03,10.0,West,23.0,27.6,N/A,,Clear,270,2013-05-16 06:35:00
2:55 AM,62.6,46.4,55,30.03,10.0,West,21.9,33.4,N/A,,Clear,280,2013-05-16 06:55:00
3:15 AM,62.6,46.4,55,30.02,10.0,West,23.0,32.2,N/A,,Clear,280,2013-05-16 07:15:00
3:35 AM,62.6,46.4,55,30.02,10.0,West,23.0,32.2,N/A,,Clear,280,2013-05-16 07:35:00
3:55 AM,62.6,46.4,55,30.02,10.0,West,21.9,32.2,N/A,,Clear,280,2013-05-16 07:55:00
4:15 AM,62.6,46.4,55,30.02,10.0,West,24.2,32.2,N/A,,Clear,280,2013-05-16 08:15:00
4:35 AM,60.8,46.4,59,30.03,10.0,West,23.0,28.8,N/A,,Clear,280,2013-05-16 08:35:00
4:55 AM,60.8,46.4,59,30.02,10.0,West,20.7,29.9,N/A,,Clear,280,2013-05-16 08:55:00
5:15 AM,60.8,44.6,55,30.02,10.0,West,21.9,28.8,N/A,,Clear,280,2013-05-16 09:15:00
5:35 AM,60.8,44.6,55,30.03,10.0,West,17.3,26.5,N/A,,Clear,280,2013-05-16 09:35:00
5:55 AM,60.8,44.6,55,30.03,10.0,West,17.3,24.2,N/A,,Clear,280,2013-05-16 09:55:00
6:15 AM,60.8,44.6,55,30.03,10.0,West,17.3,23.0,N/A,,Clear,270,2013-05-16 10:15:00
6:35 AM,59.0,44.6,59,30.04,10.0,West,17.3,23.0,N/A,,Clear,280,2013-05-16 10:35:00
6:55 AM,59.0,46.4,63,30.05,10.0,West,17.3,23.0,N/A,,Clear,280,2013-05-16 10:55:00
7:15 AM,60.8,46.4,59,30.05,10.0,West,17.3,23.0,N/A,,Clear,280,2013-05-16 11:15:00
7:35 AM,59.0,46.4,63,30.05,10.0,West,18.4,25.3,N/A,,Clear,280,2013-05-16 11:35:00
7:55 AM,60.8,46.4,59,30.06,10.0,West,19.6,25.3,N/A,,Clear,280,2013-05-16 11:55:00
8:15 AM,60.8,48.2,63,30.06,10.0,West,19.6,27.6,N/A,,Clear,280,2013-05-16 12:15:00
8:35 AM,60.8,48.2,63,30.07,10.0,West,18.4,-,N/A,Thunderstorm,Clear,280,2013-05-16 12:35:00
8:55 AM,62.6,48.2,59,30.07,10.0,West,20.7,26.5,N/A,,Clear,280,2013-05-16 12:55:00
9:15 AM,62.6,50.0,63,30.07,10.0,WNW,18.4,27.6,N/A,Thunderstorm,Clear,290,2013-05-16 13:15:00
9:35 AM,64.4,50.0,59,30.07,10.0,West,16.1,25.3,N/A,,Clear,280,2013-05-16 13:35:00
9:55 AM,64.4,51.8,64,30.07,10.0,WNW,18.4,29.9,N/A,,Scattered Clouds,300,2013-05-16 13:55:00
10:15 AM,64.4,51.8,64,30.07,10.0,West,16.1,25.3,N/A,,Clear,280,2013-05-16 14:15:00
10:35 AM,64.4,51.8,64,30.08,10.0,WNW,15.0,21.9,N/A,,Clear,290,2013-05-16 14:35:00
10:55 AM,66.2,51.8,60,30.08,10.0,West,13.8,19.6,N/A,,Clear,280,2013-05-16 14:55:00
11:15 AM,68.0,53.6,60,30.09,10.0,West,11.5,17.3,N/A,,Clear,280,2013-05-16 15:15:00
11:35 AM,66.2,53.6,64,30.09,10.0,West,11.5,20.7,N/A,,Clear,280,2013-05-16 15:35:00
11:55 AM,68.0,53.6,60,30.09,10.0,West,13.8,21.9,N/A,,Clear,270,2013-05-16 15:55:00
12:15 PM,69.8,55.4,60,30.09,10.0,West,17.3,-,N/A,,Scattered Clouds,260,2013-05-16 16:15:00
12:35 PM,71.6,55.4,57,30.09,10.0,West,11.5,21.9,N/A,,Scattered Clouds,270,2013-05-16 16:35:00
12:55 PM,71.6,55.4,57,30.09,10.0,West,15.0,25.3,N/A,,Scattered Clouds,270,2013-05-16 16:55:00
1:15 PM,71.6,53.6,53,30.09,10.0,WSW,18.4,23.0,N/A,,Mostly Cloudy,240,2013-05-16 17:15:00
1:35 PM,71.6,55.4,57,30.09,10.0,West,12.7,21.9,N/A,,Mostly Cloudy,260,2013-05-16 17:35:00
1:55 PM,69.8,55.4,60,30.08,10.0,West,8.1,18.4,N/A,,Mostly Cloudy,270,2013-05-16 17:55:00
2:15 PM,68.0,53.6,60,30.08,10.0,West,13.8,21.9,N/A,,Overcast,260,2013-05-16 18:15:00
2:35 PM,69.8,55.4,60,30.08,10.0,West,12.7,18.4,N/A,,Scattered Clouds,280,2013-05-16 18:35:00
2:55 PM,71.6,55.4,57,30.08,10.0,West,13.8,17.3,N/A,,Mostly Cloudy,280,2013-05-16 18:55:00
3:15 PM,69.8,55.4,60,30.07,7.0,WNW,10.4,18.4,0.01,,Scattered Clouds,300,2013-05-16 19:15:00
3:35 PM,64.4,57.2,77,30.07,10.0,West,19.6,25.3,0.05,Rain,Light Rain,260,2013-05-16 19:35:00
3:55 PM,64.4,59.0,83,30.08,10.0,WNW,5.8,18.4,N/A,Rain-Thunderstorm,Light Thunderstorms and Rain,290,2013-05-16 19:55:00
4:15 PM,62.6,55.4,77,30.09,10.0,NW,12.7,20.7,N/A,,Mostly Cloudy,320,2013-05-16 20:15:00
4:35 PM,62.6,55.4,77,30.07,10.0,NW,10.4,16.1,N/A,Rain,Light Rain,310,2013-05-16 20:35:00
4:55 PM,64.4,53.6,68,30.08,10.0,WNW,10.4,17.3,N/A,,Scattered Clouds,290,2013-05-16 20:55:00
5:15 PM,62.6,53.6,72,30.08,10.0,West,11.5,-,N/A,,Scattered Clouds,270,2013-05-16 21:15:00
5:35 PM,64.4,55.4,73,30.09,10.0,WNW,10.4,-,N/A,,Mostly Cloudy,290,2013-05-16 21:35:00
6:15 PM,64.4,55.4,73,30.08,10.0,WNW,6.9,-,N/A,,Clear,290,2013-05-16 22:15:00
6:35 PM,64.4,57.2,77,30.08,10.0,WNW,4.6,-,N/A,,Clear,300,2013-05-16 22:35:00
6:55 PM,62.6,57.2,82,30.08,10.0,NW,5.8,-,N/A,,Scattered Clouds,310,2013-05-16 22:55:00
7:35 PM,57.2,55.4,94,30.12,10.0,West,16.1,23.0,0.46,Rain-Thunderstorm,Light Thunderstorms and Rain,280,2013-05-16 23:35:00
8:15 PM,55.4,55.4,100,30.12,10.0,West,21.9,32.2,0.07,Rain,Light Rain,270,2013-05-17 00:15:00
8:16 PM,55.4,53.6,94,30.12,10.0,West,21.9,32.2,0.07,Rain,Light Rain,270,2013-05-17 00:16:00
8:56 PM,55.4,53.6,94,30.11,10.0,West,18.4,24.2,N/A,,Mostly Cloudy,270,2013-05-17 00:56:00
9:15 PM,55.4,53.6,94,30.12,10.0,West,19.6,26.5,N/A,,Scattered Clouds,270,2013-05-17 01:15:00
9:56 PM,55.4,53.6,94,30.12,10.0,West,16.1,-,N/A,,Mostly Cloudy,270,2013-05-17 01:56:00
10:15 PM,55.4,53.6,94,30.12,10.0,WNW,16.1,21.9,N/A,,Scattered Clouds,290,2013-05-17 02:15:00
10:35 PM,55.4,51.8,88,30.12,10.0,WNW,10.4,17.3,N/A,,Mostly Cloudy,300,2013-05-17 02:35:00
10:55 PM,55.4,51.8,88,30.12,10.0,West,11.5,-,N/A,,Overcast,280,2013-05-17 02:55:00
11:15 PM,57.2,51.8,82,30.12,10.0,WNW,9.2,-,N/A,,Mostly Cloudy,290,2013-05-17 03:15:00
11:35 PM,57.2,51.8,82,30.12,10.0,WNW,10.4,-,N/A,,Scattered Clouds,290,2013-05-17 03:35:00
11:55 PM,55.4,51.8,88,30.12,10.0,West,9.2,-,N/A,,Clear,280,2013-05-17 03:55:00